Terminal Aerodrome Forecast
Issued by NWS Lake Charles, LA

Current Version | Previous Version | Text Only | Print | Product List | Glossary On
Versions: 1 2 3 4 5 6 7 8 9 10 11 12 13 14 15 16 17 18 19 20 21
000
FTUS44 KLCH 211127
TAFLCH
TAF
KLCH 211127Z 2112/2212 VRB05KT P6SM VCSH SCT025 BKN060 BKN250
     FM211500 17008KT P6SM VCTS SCT030CB SCT200
     FM220100 18004KT P6SM BKN250=

USA.gov is the U.S. government's official web portal to all federal, state and local government web resources and services.